Coffeyville, KS

9:53 AM CDT on March 24, 2017 (GMT -0500)
Coffeyville Municipal

Weather History for KCFV - January, 2012

Change the Weather History Date:

Wednesday, January 11, 2012

  Actual Average Record
Temperature  
Mean Temperature 40 °F -  
Max Temperature 57 °F 41 °F 75 °F (2017)
Min Temperature 23 °F 22 °F 3 °F (1997)
Degree Days  
Heating Degree Days 25    
Moisture  
Dew Point 25 °F    
Average Humidity 72    
Maximum Humidity 86    
Minimum Humidity 33    
Precipitation  
Precipitation 0.00 in - - ()
Sea Level Pressure  
Sea Level Pressure 29.85 in    
Wind  
Wind Speed 10 mph (NNW)    
Max Wind Speed 29 mph    
Max Gust Speed 45 mph    
Visibility 7 miles    
Events Snow    
Averages and records for this station are not official NWS values.
T = Trace of Precipitation, MM = Missing Value Source: NWS Daily Summary

Daily Weather History Graph

Daily Weather History Graph

Search for Another Location

Airport or City:

Trip Planner

Search our weather history database for the weather conditions in past years. The results will help you decide how hot, cold, wet, or windy it might be!

Date:

Astronomy

Jan. 11, 2012 Rise Set
Actual Time 7:35 AM CST 5:24 PM CST
Civil Twilight 7:07 AM CST 5:53 PM CST
Nautical Twilight 6:35 AM CST 6:25 PM CST
Astronomical Twilight 6:03 AM CST 6:56 PM CST
Moon 8:19 PM CST (1/11) 8:52 AM CST (1/11)
Length of Visible Light 10h 45m
Length of Day
9h 48m
Waning Gibbous, 93% of the Moon is Illuminated
Jan 11
Waning Gibbous
Jan 16
Last Quarter
Jan 23
New
Jan 30
First Quarter
Feb 7
Full

Hourly Weather History & Observations

Time (CST) Temp. Windchill Dew Point Humidity Pressure Visibility Wind Dir Wind Speed Gust Speed Precip Events Conditions
12:52 AM 28.0 °F - 21.9 °F 78% 29.75 in 10.0 mi Calm Calm - N/A   Clear
1:52 AM 28.0 °F - 21.9 °F 78% 29.75 in 10.0 mi Calm Calm - N/A   Clear
2:52 AM 26.1 °F 19.4 °F 21.9 °F 84% 29.73 in 10.0 mi ESE 5.8 mph - N/A   Clear
3:52 AM 27.0 °F - 21.0 °F 78% 29.72 in 10.0 mi Calm Calm - N/A   Clear
4:52 AM 24.1 °F - 19.9 °F 84% 29.71 in 10.0 mi Calm Calm - N/A   Clear
5:52 AM 23.0 °F 18.4 °F 19.0 °F 85% 29.72 in 10.0 mi SE 3.5 mph - N/A   Clear
6:52 AM 24.1 °F 19.7 °F 19.9 °F 84% 29.73 in 10.0 mi West 3.5 mph - N/A   Clear
7:52 AM 24.1 °F - 19.9 °F 84% 29.73 in 9.0 mi Calm Calm - N/A   Clear
8:52 AM 30.9 °F - 26.1 °F 82% 29.72 in 10.0 mi Calm Calm - N/A   Clear
9:52 AM 41.0 °F - 28.9 °F 62% 29.72 in 10.0 mi Calm Calm - N/A   Clear
10:52 AM 50.0 °F - 28.9 °F 44% 29.70 in 10.0 mi SW 3.5 mph - N/A   Clear
11:52 AM 57.9 °F - 28.9 °F 33% 29.67 in 10.0 mi West 10.4 mph - N/A   Clear
12:52 PM 55.9 °F - 32.0 °F 40% 29.68 in 10.0 mi WNW 15.0 mph - N/A   Clear
1:52 PM 54.0 °F - 32.0 °F 43% 29.69 in 10.0 mi NNW 15.0 mph 23.0 mph N/A   Clear
2:52 PM 53.1 °F - 33.1 °F 47% 29.71 in 10.0 mi NNW 19.6 mph 27.6 mph N/A   Clear
3:52 PM 46.9 °F - 32.0 °F 56% 29.76 in 10.0 mi NNW 27.6 mph 33.4 mph N/A   Mostly Cloudy
4:52 PM 44.1 °F 35.2 °F 30.9 °F 60% 29.79 in 10.0 mi North 23.0 mph 35.7 mph N/A   Overcast
5:52 PM 43.0 °F 34.0 °F 30.0 °F 60% 29.84 in 10.0 mi NNW 21.9 mph 31.1 mph N/A   Overcast
6:52 PM 39.0 °F 28.0 °F 28.0 °F 65% 29.88 in 10.0 mi NNW 25.3 mph 44.9 mph N/A   Overcast
7:52 PM 35.1 °F 23.0 °F 24.1 °F 64% 29.93 in 10.0 mi NNW 24.2 mph 42.6 mph N/A   Overcast
8:23 PM 30.2 °F 15.4 °F 24.8 °F 80% 29.94 in 1.8 mi NNW 28.8 mph 40.3 mph 0.00 in Snow Light Snow
8:44 PM 30.2 °F 16.8 °F 24.8 °F 80% 29.98 in 1.2 mi NNW 23.0 mph 32.2 mph 0.00 in Snow Light Snow
8:52 PM 30.0 °F 16.9 °F 25.0 °F 82% 30.00 in 1.5 mi NNW 21.9 mph 31.1 mph 0.00 in Snow Light Snow
9:01 PM 28.4 °F 13.3 °F 24.8 °F 86% 29.98 in 2.0 mi NNW 27.6 mph 36.8 mph 0.00 in Snow Light Snow
9:13 PM 28.4 °F 16.2 °F 24.8 °F 86% 29.99 in 1.8 mi NNW 17.3 mph 32.2 mph 0.00 in Snow Light Snow
9:19 PM 28.4 °F 13.8 °F 24.8 °F 86% 29.99 in 3.0 mi NNW 25.3 mph 32.2 mph 0.00 in Snow Light Snow
9:35 PM 28.4 °F 14.1 °F 23.0 °F 80% 30.00 in 2.0 mi NNW 24.2 mph 33.4 mph 0.00 in Snow Light Snow
9:47 PM 28.4 °F 14.4 °F 23.0 °F 80% 30.00 in 1.5 mi NNW 23.0 mph 29.9 mph 0.00 in Snow Light Snow
9:52 PM 28.0 °F 14.6 °F 23.0 °F 81% 30.02 in 1.5 mi NNW 20.7 mph 31.1 mph 0.00 in Snow Light Snow
10:26 PM 28.4 °F 15.1 °F 24.8 °F 86% 30.01 in 3.0 mi NNW 20.7 mph 25.3 mph 0.00 in Snow Light Snow
10:47 PM 28.4 °F 16.2 °F 23.0 °F 80% 30.01 in 3.0 mi NNW 17.3 mph - 0.00 in Snow Light Snow
10:52 PM 28.0 °F 16.1 °F 23.0 °F 81% 30.03 in 4.0 mi NNW 16.1 mph 26.5 mph 0.00 in Snow Light Snow
11:52 PM 28.9 °F 18.2 °F 19.9 °F 69% 30.02 in 10.0 mi NNW 13.8 mph - 0.00 in   Mostly Cloudy